Weather History for KFEP - September, 2012

Change the Weather History Date:

Wednesday, September 5, 2012

  Actual Average Record
Temperature  
Mean Temperature 73 °F -  
Max Temperature 86 °F 79 °F 92 °F (1983)
Min Temperature 61 °F 53 °F 41 °F (1974)
Cooling Degree Days 8    
Growing Degree Days 23 (Base 50)    
Moisture  
Dew Point 63 °F    
Average Humidity 73    
Maximum Humidity 92    
Minimum Humidity 42    
Precipitation  
Precipitation 0.22 in - - ()
Sea Level Pressure  
Sea Level Pressure 29.85 in    
Wind  
Wind Speed 9 mph (WSW)    
Max Wind Speed 21 mph    
Max Gust Speed 30 mph    
Visibility 10 miles    
Events Rain , Thunderstorm    
Averages and records for this station are not official NWS values.
T = Trace of Precipitation, MM = Missing Value Source: NWS Daily Summary

Daily Weather History Graph

Daily Weather History Graph

Search for Another Location

Airport or City:

Trip Planner

Search our weather history database for the weather conditions in past years. The results will help you decide how hot, cold, wet, or windy it might be!

Date:

Astronomy

Sep. 05, 2012 Rise Set
Actual Time 6:28 AM CDT 7:24 PM CDT
Civil Twilight 5:59 AM CDT 7:53 PM CDT
Nautical Twilight 5:25 AM CDT 8:26 PM CDT
Astronomical Twilight 4:50 AM CDT 9:02 PM CDT
Moon 9:47 PM CDT (9/5) 11:39 AM CDT (9/5)
Length of Visible Light 13h 53m
Length of Day
12h 56m
Waning Gibbous, 76% of the Moon is Illuminated
Sep 5
Waning Gibbous
Sep 8
Last Quarter
Sep 15
New
Sep 22
First Quarter
Sep 29
Full

Hourly Weather History & Observations

Time (CDT) Temp. Heat Index Dew Point Humidity Pressure Visibility Wind Dir Wind Speed Gust Speed Precip Events Conditions
12:15 AM 64.6 °F - 59.7 °F 84% 29.88 in 10.0 mi ENE 9.2 mph - N/A   Clear
12:35 AM 64.0 °F - 59.7 °F 86% 29.86 in 10.0 mi East 9.2 mph - N/A   Clear
12:55 AM 64.0 °F - 59.9 °F 86% 29.85 in 10.0 mi East 6.9 mph - N/A   Clear
1:15 AM 64.0 °F - 59.9 °F 86% 29.85 in 10.0 mi ESE 5.8 mph - N/A   Clear
1:35 AM 64.0 °F - 59.9 °F 86% 29.85 in 10.0 mi ENE 3.5 mph - N/A   Clear
1:55 AM 64.0 °F - 59.9 °F 86% 29.84 in 10.0 mi SE 4.6 mph - N/A   Clear
2:15 AM 64.0 °F - 59.5 °F 85% 29.84 in 10.0 mi NNW 5.8 mph - N/A   Clear
2:35 AM 61.7 °F - 58.1 °F 88% 29.84 in 10.0 mi North 4.6 mph - N/A   Clear
2:55 AM 61.7 °F - 58.3 °F 89% 29.84 in 10.0 mi North 3.5 mph - N/A   Clear
3:15 AM 61.7 °F - 58.3 °F 89% 29.84 in 10.0 mi Calm Calm - N/A   Clear
3:35 AM 61.7 °F - 59.0 °F 91% 29.85 in 10.0 mi ENE 5.8 mph - N/A   Clear
3:55 AM 61.7 °F - 59.0 °F 91% 29.88 in 10.0 mi WNW 6.9 mph - N/A   Clear
4:15 AM 64.0 °F - 60.1 °F 87% 29.93 in 10.0 mi WNW 11.5 mph 20.7 mph N/A   Mostly Cloudy
4:35 AM 65.3 °F - 59.9 °F 83% 29.92 in 10.0 mi WNW 13.8 mph 23.0 mph N/A   Overcast
4:55 AM 65.5 °F - 60.3 °F 83% 29.94 in 10.0 mi West 19.6 mph 27.6 mph N/A Thunderstorm Overcast
5:15 AM 64.9 °F - 61.2 °F 88% 29.97 in 7.0 mi West 20.7 mph 29.9 mph 0.01 in Rain , Thunderstorm Light Thunderstorms and Rain
5:35 AM 64.0 °F - 61.2 °F 90% 29.98 in - WNW 18.4 mph - N/A Thunderstorm Thunderstorm
5:55 AM 64.0 °F - 61.2 °F 90% 29.99 in 4.0 mi West 18.4 mph 27.6 mph 0.06 in Rain , Thunderstorm Heavy Thunderstorms and Rain
6:15 AM 64.0 °F - 60.8 °F 89% 30.00 in 5.0 mi West 13.8 mph - 0.05 in Rain , Thunderstorm Thunderstorms and Rain
6:35 AM 64.0 °F - 60.8 °F 89% 29.98 in 5.0 mi SW 4.6 mph - 0.12 in Rain , Thunderstorm Rain
6:55 AM 64.0 °F - 61.7 °F 92% 29.87 in 7.0 mi SE 18.4 mph - 0.16 in Rain Light Rain
7:15 AM 64.0 °F - 60.1 °F 87% 29.85 in 10.0 mi SE 16.1 mph - N/A   Mostly Cloudy
7:35 AM 65.5 °F - 60.6 °F 84% 29.82 in 10.0 mi ESE 10.4 mph - N/A   Scattered Clouds
7:55 AM 65.3 °F - 60.8 °F 85% 29.82 in 10.0 mi SSE 11.5 mph - N/A   Clear
8:15 AM 66.2 °F - 61.0 °F 83% 29.81 in 10.0 mi SE 11.5 mph - N/A   Clear
8:35 AM 66.9 °F - 61.2 °F 82% 29.82 in 10.0 mi SSE 10.4 mph - N/A   Clear
8:55 AM 69.4 °F - 61.3 °F 75% 29.81 in 10.0 mi SSE 11.5 mph - N/A   Clear
9:15 AM 71.8 °F - 62.6 °F 73% 29.81 in 10.0 mi SSE 10.4 mph - N/A   Clear
9:35 AM 74.3 °F - 63.3 °F 68% 29.80 in 10.0 mi SSE 11.5 mph - N/A   Clear
9:55 AM 74.3 °F - 63.5 °F 69% 29.80 in 10.0 mi SSW 8.1 mph - N/A   Clear
10:15 AM 79.2 °F - 65.7 °F 63% 29.80 in 10.0 mi SSW 10.4 mph 16.1 mph N/A   Clear
10:35 AM 79.3 °F - 64.4 °F 60% 29.79 in 10.0 mi SW 8.1 mph - N/A   Clear
10:55 AM 81.9 °F 82.6 °F 61.5 °F 50% 29.79 in 10.0 mi SW 11.5 mph - N/A   Clear
11:15 AM 84.4 °F 85.2 °F 63.0 °F 48% 29.80 in 10.0 mi SSW 12.7 mph 18.4 mph N/A   Clear
11:35 AM 84.4 °F 85.4 °F 63.1 °F 49% 29.80 in 10.0 mi SSW 12.7 mph 21.9 mph N/A   Clear
11:55 AM 84.4 °F 84.6 °F 60.6 °F 45% 29.80 in 10.0 mi SW 9.2 mph - N/A   Clear
12:15 PM 85.6 °F 85.4 °F 60.4 °F 42% 29.80 in 10.0 mi SW 10.4 mph 17.3 mph N/A   Clear
12:35 PM 85.3 °F 85.4 °F 61.2 °F 44% 29.81 in 10.0 mi SW 11.5 mph - N/A   Clear
12:55 PM 85.3 °F 85.9 °F 62.6 °F 46% 29.81 in 10.0 mi WSW 12.7 mph 18.4 mph N/A   Clear
1:15 PM 85.6 °F 85.9 °F 61.3 °F 44% 29.82 in 10.0 mi WSW 17.3 mph 24.2 mph N/A   Clear
1:35 PM 85.8 °F 86.3 °F 62.1 °F 45% 29.82 in 10.0 mi WSW 18.4 mph 24.2 mph N/A   Clear
1:55 PM 85.5 °F 85.2 °F 60.3 °F 42% 29.82 in 10.0 mi West 16.1 mph 23.0 mph N/A   Scattered Clouds
2:35 PM 84.4 °F 85.6 °F 63.9 °F 50% 29.81 in 10.0 mi West 12.7 mph 17.3 mph N/A   Mostly Cloudy
2:55 PM 84.4 °F 86.1 °F 64.9 °F 52% 29.82 in 10.0 mi West 11.5 mph 20.7 mph N/A   Mostly Cloudy
3:15 PM 84.7 °F 86.6 °F 65.3 °F 52% 29.81 in 10.0 mi West 11.5 mph 17.3 mph N/A   Scattered Clouds
3:35 PM 84.6 °F 86.3 °F 65.1 °F 52% 29.81 in 10.0 mi WSW 12.7 mph - N/A   Scattered Clouds
3:55 PM 84.4 °F 86.8 °F 66.4 °F 55% 29.81 in 10.0 mi WNW 11.5 mph - N/A   Scattered Clouds
4:15 PM 84.4 °F 87.3 °F 67.5 °F 57% 29.81 in 10.0 mi West 9.2 mph - N/A   Scattered Clouds
4:35 PM 83.8 °F 87.0 °F 68.0 °F 59% 29.82 in 10.0 mi WNW 8.1 mph - N/A   Mostly Cloudy
4:55 PM 82.4 °F 85.4 °F 68.0 °F 62% 29.81 in 10.0 mi WNW 13.8 mph - N/A   Mostly Cloudy
5:15 PM 82.2 °F 84.6 °F 66.4 °F 59% 29.82 in 10.0 mi West 11.5 mph - N/A   Mostly Cloudy
5:35 PM 82.2 °F 84.4 °F 66.0 °F 58% 29.82 in 10.0 mi West 8.1 mph - N/A   Mostly Cloudy
5:55 PM 83.3 °F 85.9 °F 66.9 °F 58% 29.82 in 10.0 mi WNW 8.1 mph - N/A   Overcast
6:15 PM 81.9 °F 84.2 °F 66.6 °F 60% 29.83 in 10.0 mi West 5.8 mph - N/A   Overcast
6:35 PM 80.8 °F 83.3 °F 67.6 °F 64% 29.83 in 10.0 mi West 6.9 mph - N/A   Overcast
6:55 PM 79.3 °F - 66.9 °F 66% 29.84 in 10.0 mi West 3.5 mph - N/A   Mostly Cloudy
7:15 PM 79.3 °F - 67.1 °F 66% 29.84 in 10.0 mi WNW 3.5 mph - N/A   Mostly Cloudy
7:35 PM 75.7 °F - 66.7 °F 74% 29.84 in 10.0 mi WNW 4.6 mph - N/A   Scattered Clouds
7:55 PM 74.3 °F - 65.8 °F 75% 29.85 in 10.0 mi Calm Calm - N/A   Clear
8:15 PM 74.3 °F - 66.6 °F 77% 29.85 in 10.0 mi WNW 3.5 mph - N/A   Scattered Clouds
8:35 PM 74.3 °F - 67.5 °F 79% 29.86 in 10.0 mi Calm Calm - N/A   Clear
8:55 PM 74.3 °F - 66.6 °F 77% 29.86 in 10.0 mi Calm Calm - N/A   Scattered Clouds
9:15 PM 74.3 °F - 68.0 °F 81% 29.86 in 10.0 mi Calm Calm - N/A   Clear
9:35 PM 74.1 °F - 68.2 °F 82% 29.86 in 10.0 mi Calm Calm - N/A   Clear
9:55 PM 69.6 °F - 65.1 °F 86% 29.86 in 10.0 mi Calm Calm - N/A   Clear
10:15 PM 67.5 °F - 63.5 °F 87% 29.86 in 10.0 mi Calm Calm - N/A   Clear
10:35 PM 67.1 °F - 63.9 °F 89% 29.87 in 10.0 mi Calm Calm - N/A   Clear
10:55 PM 67.8 °F - 64.2 °F 88% 29.87 in 10.0 mi WSW 3.5 mph - N/A   Clear
11:15 PM 66.7 °F - 63.1 °F 88% 29.87 in 10.0 mi WSW 3.5 mph - N/A   Clear
11:35 PM 66.7 °F - 63.5 °F 89% 29.87 in 10.0 mi West 3.5 mph - N/A   Clear
11:55 PM 65.3 °F - 62.8 °F 92% 29.88 in 10.0 mi Calm Calm - N/A   Clear